Location: Charlottesville
(38.0290°N, 78.4770°W)
Time: 05:33:27
(UTC-05:00)

Hubble Space Telescope - Pass Details

Date: 09 October 2017
Orbit: 538 x 541 km, 28.5° (Epoch: 11 December)

Event Time Altitude Azimuth Distance (km) Brightness Sun altitude
Exits shadow 05:18:11 17° 164° (SSE) 1,410 2.9 -24.1°
Drops below altitude 10° 05:19:51 10° 142° (SE) 1,786 3.7 -23.8°
Sets 05:22:36 0° 124° (SE) 2,677 5.0 -23.3°
